Location: Linz
(48.3300°N, 14.3000°E)
Time: 13:37:26
(UTC+01:00)

ISS - Pass Details

Date: 16 November 2017
Orbit: 402 x 407 km, 51.6° (Epoch: 22 November)

Event Time Altitude Azimuth Distance (km) Brightness Sun altitude
Exits shadow 05:38:09 24° 230° (SW) 892 -2.5 -15.4°
Maximum altitude 05:38:32 24° 218° (SW) 877 -2.4 -15.4°
Drops below altitude 10° 05:41:13 10° 162° (SSE) 1,449 -0.6 -14.9°
Sets 05:43:31 0° 148° (SSE) 2,304 0.7 -14.6°
